Погода в Бени

Демократическая Республика Конго     0°29′31″N   29°27′36″E
темп.,
°C
ветер,
м/с
пор.,
м/с
влажн.,
%
обл.,
%
осадки,
мм/ч
давл.,
гПа
погр.,
м
6 мая, чт
чт601:00+17ююз009982 3.9 101217
04:00+17юз119999 2.3 101315
07:00+19зюз0096100 2.6 1014196
10:00+24зсз117799 1.1 1013972
13:00+23юз0189100 5.5 1010497
16:00+21юз0197100 2.6 101046
19:00+19зюз119950 2.9 101323
22:00+17юз1199100 0.0 101416
7 мая, пт
пт701:00+17зюз1199100 0.0 101313
04:00+16ююв0099100 0.0 101413
07:00+19вюв0196100 0.1 1016141
10:00+23ююв1175100 0.4 1015522
13:00+23сз1189100 3.5 1012538
16:00+20юв0199100 5.6 101255
19:00+19зсз1210098 6.7 101552
22:00+18зсз11100100 0.7 101647
8 мая, сб
сб801:00+18сз11100100 1.4 101470
04:00+18сз14100100 3.3 1015306
07:00+18сз02100100 5.0 1017126
10:00+20сз129098 0.5 1016342
13:00+20ссз1297100 2.3 1014139
16:00+18вюв0199100 3.0 101529
19:00+18с00100100 5.3 101732
22:00+17ююз00100100 0.4 101727
9 мая, вс
вс901:00+17сз00100100 0.5 101532
04:00+17з00100100 0.0 101523
07:00+19зюз1197100 0.1 1017173
10:00+23юз136990 0.0 1015715
13:00+22зсз3586100 1.1 1012600
16:00+20зсз1497100 2.6 1013186
19:00+18з1399100 5.1 101584
22:00+18ююз1299100 0.5 101644
10 мая, пн
пн1001:00+18юз1198100 0.6 101422
04:00+17ююв1198100 0.1 101545
07:00+20ю1393100 0.1 1016192
10:00+21юз018498 0.0 1016223
13:00+28зюз244413 0.1 10111830
16:00+25зсз245780 0.1 1011500
19:00+18зюз1191100 0.7 101512
22:00+17ююв019798 0.5 101614